Delta, CO

12:43 PM MDT on March 27, 2017 (GMT -0600)
Delta

Weather History for KAJZ - June, 2013

Change the Weather History Date:

Sunday, June 30, 2013

  Actual Average (KMTJ) Record (KMTJ)
Temperature  
Mean Temperature 80 °F -  
Max Temperature 98 °F 88 °F 99 °F (1998)
Min Temperature 63 °F 53 °F 50 °F (2005)
Cooling Degree Days 16    
Growing Degree Days 30 (Base 50)    
Moisture  
Dew Point 41 °F    
Average Humidity 26    
Maximum Humidity 49    
Minimum Humidity 11    
Precipitation  
Precipitation 0.00 in - - ()
Sea Level Pressure  
Sea Level Pressure 30.12 in    
Wind  
Wind Speed 7 mph (NE)    
Max Wind Speed 25 mph    
Max Gust Speed 38 mph    
Visibility 10 miles    
Events Thunderstorm    
Averages and records for this station are not official NWS values.
T = Trace of Precipitation, MM = Missing Value Source: NWS Daily Summary

Daily Weather History Graph

Daily Weather History Graph

Search for Another Location

Airport or City:

Trip Planner

Search our weather history database for the weather conditions in past years. The results will help you decide how hot, cold, wet, or windy it might be!

Date:

Astronomy

Jun. 30, 2013 Rise Set
Actual Time 5:50 AM MDT 8:41 PM MDT
Civil Twilight 5:18 AM MDT 9:13 PM MDT
Nautical Twilight 4:38 AM MDT 9:53 PM MDT
Astronomical Twilight 3:52 AM MDT 10:38 PM MDT
Moon 12:47 AM MDT (6/30) 2:01 PM MDT (6/30)
Length of Visible Light 15h 54m
Length of Day
14h 50m
Last Quarter, 45% of the Moon is Illuminated
Jun 30
Last Quarter
Jul 8
New
Jul 15
First Quarter
Jul 22
Full
Jul 29
Last Quarter

Hourly Weather History & Observations

Time (MDT) Temp. Dew Point Humidity Pressure Visibility Wind Dir Wind Speed Gust Speed Precip Events Conditions
12:15 AM 81.5 °F 41.9 °F 25% 30.14 in 10.0 mi NE 10.4 mph - N/A   Clear
12:35 AM 80.1 °F 41.9 °F 26% 30.15 in 10.0 mi NE 10.4 mph - N/A   Clear
12:55 AM 75.7 °F 41.9 °F 30% 30.15 in 10.0 mi NE 6.9 mph - N/A   Clear
1:15 AM 73.8 °F 42.1 °F 32% 30.15 in 10.0 mi ENE 8.1 mph - N/A   Clear
1:35 AM 73.2 °F 41.9 °F 32% 30.15 in 10.0 mi ENE 4.6 mph - N/A   Clear
1:55 AM 70.9 °F 42.3 °F 36% 30.15 in 10.0 mi NE 5.8 mph - N/A   Clear
2:15 AM 70.3 °F 44.8 °F 40% 30.15 in 10.0 mi NNE 9.2 mph - N/A   Clear
2:35 AM 73.0 °F 42.8 °F 34% 30.15 in 10.0 mi NE 9.2 mph - N/A   Clear
2:55 AM 73.4 °F 42.4 °F 33% 30.15 in 10.0 mi NE 9.2 mph - N/A   Clear
3:15 AM 72.1 °F 42.1 °F 34% 30.15 in 10.0 mi NE 9.2 mph - N/A   Clear
3:35 AM 70.0 °F 43.2 °F 38% 30.16 in 10.0 mi ENE 5.8 mph - N/A   Clear
3:55 AM 70.0 °F 43.3 °F 38% 30.16 in 10.0 mi NE 4.6 mph - N/A   Clear
4:15 AM 67.1 °F 46.2 °F 47% 30.16 in 10.0 mi Calm Calm - N/A   Clear
4:35 AM 67.6 °F 46.6 °F 47% 30.16 in 10.0 mi North 6.9 mph - N/A   Clear
4:55 AM 67.8 °F 45.3 °F 44% 30.16 in 10.0 mi Calm Calm - N/A   Clear
5:15 AM 64.8 °F 41.9 °F 43% 30.16 in 10.0 mi Calm Calm - N/A   Clear
5:35 AM 63.5 °F 42.1 °F 46% 30.17 in 10.0 mi Calm Calm - N/A   Clear
5:55 AM 63.0 °F 42.4 °F 47% 30.18 in 10.0 mi Calm Calm - N/A   Clear
6:15 AM 63.5 °F 44.1 °F 49% 30.19 in 10.0 mi Calm Calm - N/A   Clear
6:35 AM 64.8 °F 43.3 °F 46% 30.19 in 10.0 mi ENE 4.6 mph - N/A   Clear
6:55 AM 67.6 °F 43.9 °F 42% 30.20 in 10.0 mi Calm Calm - N/A   Clear
7:15 AM 69.1 °F 43.7 °F 40% 30.20 in 10.0 mi NNE 4.6 mph - N/A   Clear
7:35 AM 70.5 °F 43.5 °F 38% 30.20 in 10.0 mi NE 4.6 mph - N/A   Clear
7:55 AM 72.1 °F 43.0 °F 35% 30.20 in 10.0 mi NE 3.5 mph - N/A   Clear
8:15 AM 72.5 °F 45.1 °F 37% 30.21 in 10.0 mi ENE 3.5 mph - N/A   Clear
8:35 AM 74.3 °F 44.1 °F 34% 30.20 in 10.0 mi ENE 3.5 mph - N/A   Clear
8:55 AM 75.2 °F 45.1 °F 34% 30.20 in 10.0 mi Calm Calm - N/A   Clear
9:15 AM 77.0 °F 45.3 °F 32% 30.20 in 10.0 mi East 4.6 mph - N/A   Clear
9:35 AM 79.0 °F 45.0 °F 30% 30.19 in 10.0 mi East 4.6 mph - N/A   Clear
9:55 AM 79.7 °F 45.0 °F 29% 30.19 in 10.0 mi SE 4.6 mph - N/A   Clear
10:15 AM 81.3 °F 45.0 °F 28% 30.18 in 10.0 mi SSE 4.6 mph - N/A   Clear
10:35 AM 82.8 °F 46.0 °F 28% 30.18 in 10.0 mi SSE 4.6 mph - N/A   Clear
10:55 AM 83.8 °F 46.0 °F 27% 30.18 in 10.0 mi Calm Calm - N/A   Clear
11:15 AM 83.8 °F 44.6 °F 25% 30.17 in 10.0 mi SSW 4.6 mph - N/A   Clear
11:35 AM 84.2 °F 43.9 °F 24% 30.16 in 10.0 mi WSW 3.5 mph - N/A   Clear
11:55 AM 86.9 °F 41.0 °F 20% 30.15 in 10.0 mi Calm Calm - N/A   Clear
12:15 PM 89.2 °F 40.8 °F 18% 30.15 in 10.0 mi SW 4.6 mph - N/A   Clear
12:35 PM 90.0 °F 39.7 °F 17% 30.14 in 10.0 mi ESE 4.6 mph - N/A   Clear
12:55 PM 91.6 °F 40.6 °F 17% 30.12 in 10.0 mi South 4.6 mph - N/A   Clear
1:15 PM 93.6 °F 39.2 °F 15% 30.12 in 10.0 mi ESE 5.8 mph - N/A   Clear
1:35 PM 93.2 °F 38.7 °F 15% 30.10 in 10.0 mi SE 4.6 mph - N/A   Clear
1:55 PM 93.2 °F 38.7 °F 15% 30.09 in 10.0 mi SE 8.1 mph - N/A Thunderstorm Clear
2:15 PM 94.8 °F 41.4 °F 16% 30.08 in 10.0 mi SE 9.2 mph - N/A   Clear
2:35 PM 95.0 °F 39.9 °F 15% 30.07 in 10.0 mi ESE 4.6 mph - N/A   Clear
2:55 PM 93.9 °F 38.8 °F 15% 30.06 in 10.0 mi South 4.6 mph - N/A   Scattered Clouds
3:15 PM 95.9 °F 37.8 °F 13% 30.05 in 10.0 mi Calm Calm - N/A   Clear
3:35 PM 94.3 °F 32.0 °F 11% 30.06 in 10.0 mi NNW 25.3 mph 38.0 mph N/A   Clear
3:55 PM 92.8 °F 33.8 °F 12% 30.06 in 10.0 mi NNW 15.0 mph 21.9 mph N/A   Clear
4:15 PM 93.2 °F 34.5 °F 13% 30.05 in 10.0 mi North 16.1 mph - N/A   Scattered Clouds
4:35 PM 95.2 °F 36.1 °F 13% 30.04 in 10.0 mi North 10.4 mph 18.4 mph N/A   Clear
4:55 PM 97.7 °F 35.8 °F 12% 30.03 in 10.0 mi NE 12.7 mph 16.1 mph N/A   Clear
5:15 PM 97.2 °F 36.3 °F 12% 30.03 in 10.0 mi ENE 3.5 mph 17.3 mph N/A   Clear
5:35 PM 98.1 °F 35.4 °F 11% 30.02 in 10.0 mi North 9.2 mph - N/A   Clear
5:55 PM 98.8 °F 35.2 °F 11% 30.01 in 10.0 mi NW 10.4 mph 20.7 mph N/A   Clear
6:15 PM 97.5 °F 34.9 °F 11% 30.01 in 10.0 mi NNW 8.1 mph 17.3 mph N/A   Clear
6:35 PM 98.1 °F 36.0 °F 11% 30.01 in 10.0 mi NNE 12.7 mph - N/A   Clear
6:55 PM 97.2 °F 36.1 °F 12% 30.01 in 10.0 mi North 15.0 mph 23.0 mph N/A   Clear
7:15 PM 95.7 °F 37.4 °F 13% 30.02 in 10.0 mi NNE 11.5 mph 16.1 mph N/A   Clear
7:35 PM 93.7 °F 37.6 °F 14% 30.02 in 10.0 mi NNE 13.8 mph 19.6 mph N/A   Clear
7:55 PM 93.4 °F 36.5 °F 14% 30.02 in 10.0 mi NE 11.5 mph - N/A   Clear
8:15 PM 90.7 °F 39.2 °F 16% 30.03 in 10.0 mi NNE 6.9 mph - N/A   Clear
8:35 PM 86.5 °F 38.1 °F 18% 30.04 in 10.0 mi NNE 9.2 mph - N/A   Clear
8:55 PM 84.2 °F 37.6 °F 19% 30.04 in 10.0 mi NNW 5.8 mph - N/A   Clear
9:15 PM 84.6 °F 37.4 °F 19% 30.05 in 10.0 mi North 8.1 mph - N/A   Clear
9:35 PM 84.0 °F 38.3 °F 20% 30.07 in 10.0 mi ESE 6.9 mph - N/A   Clear
9:55 PM 84.4 °F 39.9 °F 21% 30.09 in 10.0 mi ENE 12.7 mph 17.3 mph N/A   Clear
10:15 PM 83.7 °F 40.1 °F 21% 30.10 in 10.0 mi ENE 8.1 mph - N/A   Clear
10:35 PM 81.0 °F 41.0 °F 24% 30.12 in 10.0 mi ENE 5.8 mph - N/A   Clear
10:55 PM 78.3 °F 43.3 °F 29% 30.12 in 10.0 mi NNE 4.6 mph - N/A   Clear
11:15 PM 74.7 °F 44.1 °F 33% 30.13 in 10.0 mi North 5.8 mph - N/A   Clear
11:35 PM 74.1 °F 45.3 °F 36% 30.13 in 10.0 mi NE 3.5 mph - N/A   Clear
11:55 PM 75.2 °F 41.0 °F 29% 30.14 in 10.0 mi NE 6.9 mph - N/A   Clear